EUS17UV EKVG-EGPH

Flight info

Callsign EUS17UV
Flight time 1h 15m
Altitude 37000
Route ODEVA DCT NALAN DCT LAGAV/N0360F240 N560 FOYLE DCT STIRA
Aircraft A320/M-SDE3FGHIRWY/LB1

Departure

Time 2026-05-08 23:54
Airport Vágar Airport (EKVG)

Arrival

Time 2026-05-09 01:10
Airport Edinburgh Airport (EGPH)
Time Latitude Longitude Altitude Speed Heading
2026-05-08 23:32 62.06709 -7.28044 282 ft 0 kts 73°
2026-05-08 23:43 62.06706 -7.28038 279 ft 0 kts 110°
2026-05-08 23:43 62.06697 -7.28032 281 ft 3 kts 164°
2026-05-08 23:43 62.06676 -7.28047 279 ft 2 kts 205°
2026-05-08 23:44 62.06641 -7.28079 279 ft 6 kts 198°
2026-05-08 23:44 62.06611 -7.28086 279 ft 5 kts 182°
2026-05-08 23:44 62.06578 -7.28092 281 ft 4 kts 188°
2026-05-08 23:44 62.06568 -7.28096 278 ft 0 kts 191°
2026-05-08 23:45 62.06563 -7.28098 278 ft 0 kts 191°
2026-05-08 23:47 62.06562 -7.28098 278 ft 1 kts 191°
2026-05-08 23:47 62.06543 -7.28107 279 ft 1 kts 191°
2026-05-08 23:47 62.06528 -7.28121 283 ft 11 kts 204°
2026-05-08 23:47 62.06457 -7.28115 285 ft 11 kts 136°
2026-05-08 23:48 62.06418 -7.27959 283 ft 11 kts 118°
2026-05-08 23:48 62.06374 -7.27782 286 ft 19 kts 118°
2026-05-08 23:48 62.06319 -7.27562 286 ft 17 kts 118°
2026-05-08 23:48 62.06253 -7.27296 281 ft 21 kts 118°
2026-05-08 23:49 62.06183 -7.27012 273 ft 22 kts 118°
2026-05-08 23:49 62.06108 -7.26710 263 ft 24 kts 117°
2026-05-08 23:49 62.06035 -7.26419 252 ft 22 kts 118°
2026-05-08 23:49 62.05976 -7.26179 244 ft 15 kts 117°
2026-05-08 23:50 62.05952 -7.26024 240 ft 10 kts 101°
2026-05-08 23:50 62.05932 -7.26008 239 ft 0 kts 211°
2026-05-08 23:50 62.05937 -7.26032 240 ft 4 kts 300°
2026-05-08 23:50 62.05959 -7.26109 242 ft 5 kts 298°
2026-05-08 23:51 62.05960 -7.26115 242 ft 0 kts 298°
2026-05-08 23:53 62.05976 -7.26178 244 ft 29 kts 298°
2026-05-08 23:53 62.06187 -7.27024 275 ft 97 kts 298°
2026-05-08 23:54 62.06589 -7.28648 329 ft 145 kts 299°
2026-05-08 23:54 62.07045 -7.30520 1159 ft 142 kts 301°
2026-05-08 23:54 62.07476 -7.32393 2076 ft 145 kts 295°
2026-05-08 23:55 62.08196 -7.37086 2970 ft 187 kts 292°
2026-05-08 23:55 62.08612 -7.39845 3658 ft 200 kts 291°
2026-05-08 23:55 62.09044 -7.42720 4555 ft 206 kts 291°
2026-05-08 23:55 62.09444 -7.45690 5471 ft 213 kts 285°
2026-05-08 23:56 62.09576 -7.48889 6534 ft 219 kts 275°
2026-05-08 23:56 62.09378 -7.52168 7536 ft 229 kts 263°
2026-05-08 23:56 62.08823 -7.55444 8456 ft 242 kts 252°
2026-05-08 23:56 62.07888 -7.58487 9428 ft 254 kts 236°
2026-05-08 23:57 62.06539 -7.61119 10332 ft 270 kts 223°
2026-05-08 23:57 62.04855 -7.62981 11291 ft 279 kts 204°
2026-05-08 23:57 62.02934 -7.63851 12283 ft 288 kts 188°
2026-05-08 23:57 62.00936 -7.63550 13338 ft 290 kts 171°
2026-05-08 23:58 61.99020 -7.62069 14269 ft 298 kts 154°
2026-05-08 23:58 61.97336 -7.59407 15116 ft 305 kts 137°
2026-05-08 23:58 61.96074 -7.55764 15953 ft 307 kts 117°
2026-05-08 23:58 61.95371 -7.51476 16734 ft 312 kts 99°
2026-05-08 23:59 61.95126 -7.46879 17274 ft 324 kts 94°
2026-05-08 23:59 61.94889 -7.41948 17491 ft 347 kts 95°
2026-05-08 23:59 61.94624 -7.36685 17650 ft 370 kts 95°
2026-05-08 23:59 61.94334 -7.31095 18002 ft 384 kts 95°
2026-05-09 00:00 61.94035 -7.25496 18544 ft 391 kts 95°
2026-05-09 00:00 61.93716 -7.19664 19302 ft 391 kts 95°
2026-05-09 00:00 61.93396 -7.13843 19847 ft 398 kts 95°
2026-05-09 00:00 61.93075 -7.08027 20375 ft 404 kts 95°
2026-05-09 00:01 61.92746 -7.02012 21093 ft 404 kts 95°
2026-05-09 00:01 61.92426 -6.96182 21731 ft 407 kts 95°
2026-05-09 00:01 61.92089 -6.90130 22242 ft 413 kts 95°
2026-05-09 00:01 61.91747 -6.84078 22923 ft 414 kts 95°
2026-05-09 00:02 61.91388 -6.78050 23543 ft 416 kts 98°
2026-05-09 00:02 61.90626 -6.72034 23905 ft 425 kts 111°
2026-05-09 00:02 61.89276 -6.66468 24388 ft 428 kts 123°
2026-05-09 00:02 61.87395 -6.61609 24962 ft 426 kts 136°
2026-05-09 00:03 61.85084 -6.57702 25462 ft 426 kts 149°
2026-05-09 00:03 61.82431 -6.54926 25910 ft 426 kts 162°
2026-05-09 00:03 61.79608 -6.52965 26236 ft 431 kts 165°
2026-05-09 00:03 61.76758 -6.51031 26654 ft 434 kts 164°
2026-05-09 00:04 61.73898 -6.49100 27023 ft 435 kts 166°
2026-05-09 00:04 61.71002 -6.47139 27429 ft 438 kts 166°
2026-05-09 00:04 61.68079 -6.45155 27869 ft 441 kts 166°
2026-05-09 00:04 61.65147 -6.43162 28289 ft 443 kts 165°
2026-05-09 00:05 61.62200 -6.41171 28710 ft 446 kts 165°
2026-05-09 00:05 61.59237 -6.39178 29103 ft 450 kts 166°
2026-05-09 00:05 61.56260 -6.37179 29490 ft 453 kts 165°
2026-05-09 00:05 61.53235 -6.35142 29846 ft 457 kts 167°
2026-05-09 00:06 61.50206 -6.33106 30275 ft 457 kts 164°
2026-05-09 00:06 61.47176 -6.31068 30593 ft 459 kts 167°
2026-05-09 00:06 61.44130 -6.29027 30918 ft 460 kts 165°
2026-05-09 00:06 61.41074 -6.26989 31222 ft 462 kts 167°
2026-05-09 00:07 61.38001 -6.24946 31473 ft 465 kts 164°
2026-05-09 00:07 61.34910 -6.22897 31769 ft 467 kts 165°
2026-05-09 00:07 61.31809 -6.20848 32153 ft 467 kts 166°
2026-05-09 00:07 61.28718 -6.18808 32571 ft 466 kts 167°
2026-05-09 00:08 61.25627 -6.16770 32953 ft 466 kts 164°
2026-05-09 00:08 61.22543 -6.14730 33380 ft 465 kts 166°
2026-05-09 00:08 61.19456 -6.12692 33713 ft 465 kts 165°
2026-05-09 00:08 61.16379 -6.10664 34124 ft 464 kts 167°
2026-05-09 00:09 61.13312 -6.08653 34448 ft 464 kts 166°
2026-05-09 00:09 61.10233 -6.06645 34776 ft 464 kts 167°
2026-05-09 00:09 61.07153 -6.04639 35090 ft 464 kts 166°
2026-05-09 00:09 61.04072 -6.02642 35406 ft 464 kts 165°
2026-05-09 00:10 61.00992 -6.00648 35692 ft 464 kts 167°
2026-05-09 00:10 60.97896 -5.98771 35961 ft 464 kts 167°
2026-05-09 00:10 60.94773 -5.97100 36226 ft 463 kts 171°
2026-05-09 00:10 60.91677 -5.95607 36491 ft 463 kts 170°
2026-05-09 00:11 60.88537 -5.94169 36749 ft 462 kts 170°
2026-05-09 00:11 60.85399 -5.92740 37028 ft 462 kts 171°
2026-05-09 00:11 60.82257 -5.91283 37147 ft 463 kts 170°
2026-05-09 00:12 60.75995 -5.88276 37166 ft 462 kts 168°
2026-05-09 00:12 60.69771 -5.85218 37177 ft 461 kts 169°
2026-05-09 00:13 60.63573 -5.82170 37174 ft 451 kts 171°
2026-05-09 00:13 60.57498 -5.79220 37182 ft 445 kts 170°
2026-05-09 00:14 60.51499 -5.76346 37183 ft 444 kts 172°
2026-05-09 00:14 60.45491 -5.73491 37188 ft 444 kts 171°
2026-05-09 00:15 60.39461 -5.70615 37192 ft 444 kts 170°
2026-05-09 00:15 60.33451 -5.67747 37180 ft 444 kts 170°
2026-05-09 00:16 60.27482 -5.64915 37200 ft 443 kts 171°
2026-05-09 00:16 60.21476 -5.62086 37208 ft 443 kts 170°
2026-05-09 00:17 60.15474 -5.59261 37209 ft 443 kts 171°
2026-05-09 00:17 60.09476 -5.56448 37209 ft 443 kts 170°
2026-05-09 00:18 60.03477 -5.53668 37200 ft 442 kts 171°
2026-05-09 00:18 59.97486 -5.50904 37212 ft 442 kts 170°
2026-05-09 00:19 59.91517 -5.48139 37221 ft 441 kts 171°
2026-05-09 00:19 59.85538 -5.45366 37223 ft 441 kts 170°
2026-05-09 00:20 59.79560 -5.42614 37229 ft 441 kts 171°
2026-05-09 00:20 59.73575 -5.39877 37218 ft 440 kts 170°
2026-05-09 00:21 59.68616 -5.37618 37230 ft 440 kts 171°
2026-05-09 00:21 59.62652 -5.34910 37233 ft 440 kts 170°
2026-05-09 00:22 59.56691 -5.32206 37240 ft 439 kts 171°
2026-05-09 00:22 59.50735 -5.29515 37240 ft 439 kts 171°
2026-05-09 00:23 59.44781 -5.26845 37233 ft 439 kts 171°
2026-05-09 00:23 59.38816 -5.24161 37240 ft 438 kts 171°
2026-05-09 00:24 59.32926 -5.21527 37242 ft 438 kts 171°
2026-05-09 00:24 59.26987 -5.18883 37249 ft 438 kts 171°
2026-05-09 00:25 59.20993 -5.16231 37234 ft 437 kts 171°
2026-05-09 00:25 59.15075 -5.13618 37242 ft 437 kts 171°
2026-05-09 00:26 59.09139 -5.10995 37241 ft 436 kts 172°
2026-05-09 00:26 59.03227 -5.08407 37256 ft 435 kts 172°
2026-05-09 00:27 58.97322 -5.05826 37259 ft 435 kts 172°
2026-05-09 00:27 58.91430 -5.03249 37235 ft 434 kts 172°
2026-05-09 00:28 58.85547 -5.00688 37253 ft 433 kts 172°
2026-05-09 00:28 58.79673 -4.98142 37257 ft 432 kts 172°
2026-05-09 00:29 58.73808 -4.95617 37262 ft 432 kts 172°
2026-05-09 00:29 58.67983 -4.93117 37263 ft 432 kts 172°
2026-05-09 00:30 58.62122 -4.90616 37260 ft 431 kts 172°
2026-05-09 00:30 58.56266 -4.88127 37260 ft 431 kts 172°
2026-05-09 00:31 58.50408 -4.85622 37258 ft 431 kts 172°
2026-05-09 00:31 58.44556 -4.83135 37264 ft 431 kts 172°
2026-05-09 00:32 58.38699 -4.80668 37234 ft 431 kts 172°
2026-05-09 00:32 58.32853 -4.78217 37250 ft 430 kts 173°
2026-05-09 00:33 58.27013 -4.75767 37264 ft 429 kts 173°
2026-05-09 00:33 58.21183 -4.73318 37267 ft 429 kts 173°
2026-05-09 00:34 58.15353 -4.70890 37266 ft 429 kts 173°
2026-05-09 00:34 58.09526 -4.68483 37241 ft 428 kts 173°
2026-05-09 00:35 58.03712 -4.66077 37263 ft 427 kts 173°
2026-05-09 00:35 57.97916 -4.63684 37266 ft 426 kts 173°
2026-05-09 00:36 57.92122 -4.61288 37264 ft 426 kts 173°
2026-05-09 00:36 57.86346 -4.58913 37263 ft 425 kts 173°
2026-05-09 00:37 57.80564 -4.56549 37244 ft 425 kts 174°
2026-05-09 00:37 57.74798 -4.54203 37257 ft 424 kts 174°
2026-05-09 00:38 57.69035 -4.51865 37263 ft 423 kts 174°
2026-05-09 00:38 57.63280 -4.49540 37263 ft 423 kts 174°
2026-05-09 00:39 57.57529 -4.47229 37264 ft 423 kts 174°
2026-05-09 00:39 57.51786 -4.44934 37253 ft 422 kts 174°
2026-05-09 00:40 57.46059 -4.42643 37268 ft 421 kts 174°
2026-05-09 00:40 57.40356 -4.40369 37271 ft 420 kts 174°
2026-05-09 00:41 57.31789 -4.36945 37269 ft 420 kts 174°
2026-05-09 00:41 57.26076 -4.34676 37251 ft 419 kts 175°
2026-05-09 00:42 57.20426 -4.32453 37270 ft 418 kts 175°
2026-05-09 00:42 57.14745 -4.30226 37274 ft 417 kts 175°
2026-05-09 00:43 57.09029 -4.27983 37263 ft 417 kts 175°
2026-05-09 00:43 57.03338 -4.25750 37230 ft 417 kts 175°
2026-05-09 00:44 56.97712 -4.23552 37253 ft 416 kts 175°
2026-05-09 00:44 56.92052 -4.21357 37259 ft 415 kts 176°
2026-05-09 00:45 56.86421 -4.20970 37253 ft 399 kts 194°
2026-05-09 00:45 56.80937 -4.22333 36927 ft 402 kts 194°
2026-05-09 00:46 56.78132 -4.23017 36198 ft 403 kts 194°
2026-05-09 00:46 56.75372 -4.23685 35684 ft 397 kts 195°
2026-05-09 00:46 56.72624 -4.24350 34933 ft 399 kts 195°
2026-05-09 00:46 56.69890 -4.25005 34416 ft 394 kts 195°
2026-05-09 00:47 56.67196 -4.25642 33944 ft 386 kts 196°
2026-05-09 00:47 56.64543 -4.26269 33312 ft 382 kts 196°
2026-05-09 00:47 56.61928 -4.26892 32810 ft 376 kts 196°
2026-05-09 00:47 56.59356 -4.27504 32320 ft 370 kts 196°
2026-05-09 00:48 56.56821 -4.28109 31831 ft 364 kts 196°
2026-05-09 00:48 56.54327 -4.28712 31356 ft 359 kts 196°
2026-05-09 00:48 56.51866 -4.29313 30903 ft 354 kts 195°
2026-05-09 00:48 56.49440 -4.29900 30415 ft 350 kts 195°
2026-05-09 00:49 56.47048 -4.30469 29977 ft 344 kts 195°
2026-05-09 00:49 56.44694 -4.31022 29534 ft 338 kts 195°
2026-05-09 00:49 56.42380 -4.31569 29103 ft 333 kts 195°
2026-05-09 00:49 56.40101 -4.32106 28682 ft 328 kts 195°
2026-05-09 00:50 56.37858 -4.32639 28285 ft 323 kts 195°
2026-05-09 00:50 56.35661 -4.33163 27864 ft 318 kts 195°
2026-05-09 00:50 56.33476 -4.33683 27451 ft 314 kts 195°
2026-05-09 00:50 56.31332 -4.34191 27040 ft 309 kts 195°
2026-05-09 00:51 56.29210 -4.34695 26622 ft 306 kts 195°
2026-05-09 00:51 56.27109 -4.35194 26203 ft 304 kts 195°
2026-05-09 00:51 56.25019 -4.35692 25782 ft 303 kts 195°
2026-05-09 00:51 56.22918 -4.36193 25333 ft 302 kts 194°
2026-05-09 00:52 56.20841 -4.36686 24886 ft 300 kts 193°
2026-05-09 00:52 56.18732 -4.36631 24445 ft 311 kts 176°
2026-05-09 00:52 56.16678 -4.35137 23969 ft 330 kts 154°
2026-05-09 00:52 56.15023 -4.32145 23394 ft 351 kts 128°
2026-05-09 00:53 56.14161 -4.27974 22863 ft 367 kts 102°
2026-05-09 00:53 56.14026 -4.23382 22324 ft 370 kts 96°
2026-05-09 00:53 56.13958 -4.18762 21790 ft 371 kts 95°
2026-05-09 00:53 56.13898 -4.14159 21259 ft 371 kts 95°
2026-05-09 00:54 56.13835 -4.09529 20721 ft 372 kts 95°
2026-05-09 00:54 56.13767 -4.04894 20199 ft 372 kts 95°
2026-05-09 00:54 56.13694 -4.00255 19666 ft 373 kts 95°
2026-05-09 00:54 56.13616 -3.95613 19134 ft 373 kts 95°
2026-05-09 00:55 56.13530 -3.90970 18616 ft 373 kts 95°
2026-05-09 00:55 56.13438 -3.86360 18246 ft 367 kts 97°
2026-05-09 00:55 56.12884 -3.82009 17873 ft 353 kts 118°
2026-05-09 00:55 56.11535 -3.78469 17524 ft 337 kts 141°
2026-05-09 00:56 56.09634 -3.76247 17172 ft 321 kts 164°
2026-05-09 00:56 56.07500 -3.75611 16829 ft 306 kts 188°
2026-05-09 00:56 56.05451 -3.76344 16446 ft 299 kts 198°
2026-05-09 00:56 56.03442 -3.77366 15922 ft 302 kts 199°
2026-05-09 00:57 56.01421 -3.78427 15420 ft 304 kts 199°
2026-05-09 00:57 55.99418 -3.79486 14924 ft 306 kts 199°
2026-05-09 00:57 55.97375 -3.80571 14430 ft 307 kts 199°
2026-05-09 00:57 55.95325 -3.81666 13935 ft 308 kts 199°
2026-05-09 00:58 55.93244 -3.82807 13381 ft 308 kts 202°
2026-05-09 00:58 55.91460 -3.84741 12841 ft 304 kts 224°
2026-05-09 00:58 55.90018 -3.87483 12326 ft 303 kts 229°
2026-05-09 00:58 55.88624 -3.90298 11798 ft 303 kts 229°
2026-05-09 00:59 55.87233 -3.93116 11286 ft 303 kts 229°
2026-05-09 00:59 55.85845 -3.95929 10782 ft 302 kts 229°
2026-05-09 00:59 55.84453 -3.98729 10273 ft 302 kts 229°
2026-05-09 00:59 55.83059 -4.01528 9759 ft 302 kts 229°
2026-05-09 01:00 55.81667 -4.04324 9206 ft 302 kts 229°
2026-05-09 01:00 55.80102 -4.06775 8679 ft 302 kts 210°
2026-05-09 01:00 55.78103 -4.07881 8152 ft 303 kts 185°
2026-05-09 01:00 55.76032 -4.07374 7635 ft 305 kts 160°
2026-05-09 01:01 55.74254 -4.05328 7131 ft 305 kts 134°
2026-05-09 01:01 55.73143 -4.02174 6614 ft 305 kts 109°
2026-05-09 01:01 55.72609 -3.98552 6096 ft 303 kts 103°
2026-05-09 01:01 55.72192 -3.94907 5569 ft 300 kts 96°
2026-05-09 01:02 55.72259 -3.91230 5047 ft 298 kts 83°
2026-05-09 01:02 55.72592 -3.87624 4512 ft 295 kts 79°
2026-05-09 01:02 55.72961 -3.84055 3996 ft 292 kts 79°
2026-05-09 01:02 55.73475 -3.80608 3483 ft 288 kts 64°
2026-05-09 01:03 55.74732 -3.77978 3121 ft 278 kts 34°
2026-05-09 01:03 55.76373 -3.76314 3022 ft 262 kts 29°
2026-05-09 01:03 55.77968 -3.74780 3029 ft 260 kts 28°
2026-05-09 01:03 55.79547 -3.73263 3033 ft 258 kts 29°
2026-05-09 01:04 55.81069 -3.71799 3033 ft 239 kts 29°
2026-05-09 01:04 55.82508 -3.70374 2651 ft 248 kts 30°
2026-05-09 01:04 55.83970 -3.68750 2590 ft 238 kts 36°
2026-05-09 01:04 55.84770 -3.67627 2646 ft 224 kts 42°
2026-05-09 01:05 55.85231 -3.66817 2659 ft 216 kts 49°
2026-05-09 01:05 55.86015 -3.64639 2635 ft 204 kts 64°
2026-05-09 01:05 55.87163 -3.60259 2391 ft 190 kts 57°
2026-05-09 01:06 55.87871 -3.58314 2300 ft 183 kts 56°
2026-05-09 01:06 55.88570 -3.56256 2301 ft 191 kts 59°
2026-05-09 01:06 55.89190 -3.54279 2202 ft 175 kts 59°
2026-05-09 01:06 55.89775 -3.52480 2061 ft 160 kts 58°
2026-05-09 01:07 55.90144 -3.51390 1930 ft 151 kts 57°
2026-05-09 01:07 55.90709 -3.49793 1776 ft 150 kts 56°
2026-05-09 01:07 55.91266 -3.48306 1513 ft 138 kts 54°
2026-05-09 01:07 55.91812 -3.46895 1138 ft 137 kts 55°
2026-05-09 01:08 55.92258 -3.45459 928 ft 132 kts 64°
2026-05-09 01:08 55.92707 -3.44016 774 ft 128 kts 57°
2026-05-09 01:08 55.93172 -3.42683 632 ft 126 kts 60°
2026-05-09 01:08 55.93610 -3.41381 477 ft 119 kts 60°
2026-05-09 01:09 55.94058 -3.40080 329 ft 124 kts 60°
2026-05-09 01:09 55.94488 -3.38783 172 ft 119 kts 61°
2026-05-09 01:09 55.94876 -3.37611 113 ft 91 kts 59°
2026-05-09 01:09 55.95118 -3.36887 112 ft 53 kts 59°
2026-05-09 01:10 55.95255 -3.36471 111 ft 14 kts 83°
2026-05-09 01:10 55.95203 -3.36359 114 ft 11 kts 147°
2026-05-09 01:10 55.95158 -3.36311 114 ft 7 kts 149°
2026-05-09 01:10 55.95107 -3.36356 114 ft 9 kts 244°
2026-05-09 01:11 55.95078 -3.36450 114 ft 9 kts 239°
2026-05-09 01:11 55.95047 -3.36540 114 ft 9 kts 238°
2026-05-09 01:11 55.95010 -3.36644 114 ft 10 kts 238°
2026-05-09 01:11 55.94976 -3.36749 114 ft 10 kts 241°
2026-05-09 01:12 55.94932 -3.36825 114 ft 9 kts 190°
2026-05-09 01:12 55.94882 -3.36787 113 ft 8 kts 153°
2026-05-09 01:12 55.94833 -3.36778 116 ft 7 kts 183°
2026-05-09 01:12 55.94788 -3.36776 116 ft 7 kts 171°
2026-05-09 01:13 55.94732 -3.36737 116 ft 7 kts 175°
2026-05-09 01:13 55.94703 -3.36731 116 ft 2 kts 152°
2026-05-09 01:13 55.94701 -3.36717 113 ft 2 kts 105°
2026-05-09 01:13 55.94701 -3.36672 115 ft 4 kts 88°
2026-05-09 01:14 55.94701 -3.36652 116 ft 1 kts 87°
2026-05-09 01:14 55.94702 -3.36633 116 ft 2 kts 87°
2026-05-09 01:14 55.94702 -3.36611 259 ft 2 kts 89°
2026-05-09 01:14 55.94702 -3.36603 116 ft 0 kts 89°